Weather History for Warrensburg, MO

Change the Weather History Date:

Saturday, November 24, 2012

  Actual Average (KSZL) Record (KSZL)
Temperature  
Mean Temperature 30 °F -  
Max Temperature 42 °F 50 °F 66 °F (2011)
Min Temperature 19 °F 34 °F 11 °F (2013)
Degree Days  
Heating Degree Days 34    
Moisture  
Dew Point 18 °F    
Average Humidity 59    
Maximum Humidity 86    
Minimum Humidity 39    
Precipitation  
Precipitation 0.00 in - - ()
Sea Level Pressure  
Sea Level Pressure 30.21 in    
Wind  
Wind Speed 4 mph (South)    
Max Wind Speed 14 mph    
Max Gust Speed 18 mph    
Visibility 10 miles    
Events      
Averages and records for this station are not official NWS values.
T = Trace of Precipitation, MM = Missing Value Source: NWS Daily Summary

Daily Weather History Graph

Daily Weather History Graph

Search for Another Location

Airport:

Trip Planner

Search our weather history database for the weather conditions in past years. The results will help you decide how hot, cold, wet, or windy it might be!

Date:

Astronomy

Nov. 24, 2012 Rise Set
Actual Time 7:07 AM CST 4:55 PM CST
Civil Twilight 6:38 AM CST 5:25 PM CST
Nautical Twilight 6:06 AM CST 5:57 PM CST
Astronomical Twilight 5:34 AM CST 6:29 PM CST
Moon 2:39 PM CST (11/24) 3:27 AM CST (11/24)
Length of Visible Light 10h 46m
Length of Day
9h 48m
Waxing Gibbous, 87% of the Moon is Illuminated
Nov 24
Waxing Gibbous
Nov 28
Full
Dec 6
Last Quarter
Dec 13
New
Dec 19
First Quarter

Hourly Weather History & Observations

Time (CST) Temp. Windchill Dew Point Humidity Pressure Visibility Wind Dir Wind Speed Gust Speed Precip Events Conditions
12:15 AM 24.8 °F 20.5 °F 14.0 °F 64% 30.41 in 10.0 mi West 3.5 mph - N/A   Clear
12:55 AM 26.6 °F - 14.0 °F 59% 30.40 in 10.0 mi Calm Calm - N/A   Clear
1:15 AM 24.8 °F 20.5 °F 14.0 °F 64% 30.40 in 10.0 mi West 3.5 mph - N/A   Clear
1:55 AM 26.6 °F - 12.2 °F 55% 30.40 in 10.0 mi Calm Calm - N/A   Clear
2:15 AM 26.6 °F - 12.2 °F 55% 30.40 in 10.0 mi Calm Calm - N/A   Clear
2:35 AM 24.8 °F - 12.2 °F 59% 30.40 in 10.0 mi Calm Calm - N/A   Clear
2:55 AM 23.0 °F - 14.0 °F 68% 30.40 in 10.0 mi Calm Calm - N/A   Clear
3:15 AM 23.0 °F 18.4 °F 14.0 °F 68% 30.40 in 10.0 mi West 3.5 mph - N/A   Clear
3:35 AM 24.8 °F 20.5 °F 12.2 °F 59% 30.39 in 10.0 mi West 3.5 mph - N/A   Clear
3:55 AM 23.0 °F - 14.0 °F 68% 30.39 in 10.0 mi Calm Calm - N/A   Clear
4:15 AM 23.0 °F 18.4 °F 14.0 °F 68% 30.38 in 10.0 mi WSW 3.5 mph - N/A   Clear
4:35 AM 23.0 °F 18.4 °F 14.0 °F 68% 30.38 in 10.0 mi West 3.5 mph - N/A   Clear
4:55 AM 21.2 °F - 14.0 °F 74% 30.37 in 10.0 mi Calm Calm - N/A   Clear
5:15 AM 19.4 °F - 15.8 °F 86% 30.37 in 10.0 mi Calm Calm - N/A   Clear
5:35 AM 19.4 °F - 15.8 °F 86% 30.37 in 10.0 mi Calm Calm - N/A   Clear
6:15 AM 19.4 °F 14.3 °F 15.8 °F 86% 30.36 in 10.0 mi South 3.5 mph - N/A   Clear
6:35 AM 19.4 °F - 15.8 °F 86% 30.37 in 10.0 mi Calm Calm - N/A   Clear
6:55 AM 19.4 °F 12.8 °F 15.8 °F 86% 30.37 in 10.0 mi South 4.6 mph - N/A   Clear
7:15 AM 19.4 °F 14.3 °F 15.8 °F 86% 30.37 in 10.0 mi SW 3.5 mph - N/A   Clear
7:35 AM 21.2 °F - 17.6 °F 86% 30.37 in 10.0 mi Calm Calm - N/A   Clear
7:55 AM 21.2 °F - 17.6 °F 86% 30.37 in 10.0 mi Calm Calm - N/A   Clear
8:15 AM 24.8 °F - 17.6 °F 74% 30.37 in 10.0 mi Calm Calm - N/A   Clear
8:35 AM 26.6 °F - 19.4 °F 74% 30.36 in 10.0 mi Calm Calm - N/A   Clear
8:55 AM 26.6 °F 22.6 °F 19.4 °F 74% 30.35 in 10.0 mi SE 3.5 mph - N/A   Clear
9:15 AM 30.2 °F 25.4 °F 19.4 °F 64% 30.34 in 10.0 mi SSE 4.6 mph - N/A   Clear
9:35 AM 30.2 °F 24.3 °F 17.6 °F 60% 30.34 in 10.0 mi South 5.8 mph - N/A   Clear
9:55 AM 32.0 °F 25.6 °F 17.6 °F 55% 30.35 in 10.0 mi SSE 6.9 mph - N/A   Clear
10:15 AM 32.0 °F 26.4 °F 15.8 °F 51% 30.33 in 10.0 mi South 5.8 mph - N/A   Clear
10:35 AM 32.0 °F 25.6 °F 15.8 °F 51% 30.32 in 10.0 mi SSE 6.9 mph - N/A   Clear
10:55 AM 33.8 °F 27.7 °F 17.6 °F 52% 30.30 in 10.0 mi South 6.9 mph - N/A   Clear
11:15 AM 35.6 °F 28.6 °F 15.8 °F 44% 30.28 in 10.0 mi SSE 9.2 mph - N/A   Clear
11:35 AM 35.6 °F 30.7 °F 17.6 °F 48% 30.27 in 10.0 mi SSE 5.8 mph - N/A   Clear
11:55 AM 35.6 °F 30.7 °F 17.6 °F 48% 30.25 in 10.0 mi SSE 5.8 mph - N/A   Clear
12:15 PM 37.4 °F 32.8 °F 17.6 °F 45% 30.23 in 10.0 mi SSE 5.8 mph - N/A   Clear
12:35 PM 37.4 °F 32.8 °F 17.6 °F 45% 30.21 in 10.0 mi SSE 5.8 mph - N/A   Clear
12:55 PM 39.2 °F 34.2 °F 17.6 °F 42% 30.20 in 10.0 mi South 6.9 mph - N/A   Clear
1:15 PM 41.0 °F 35.8 °F 19.4 °F 42% 30.18 in 10.0 mi SE 8.1 mph - N/A   Clear
1:35 PM 41.0 °F 33.9 °F 19.4 °F 42% 30.16 in 10.0 mi SE 12.7 mph 17.3 mph N/A   Clear
1:55 PM 42.8 °F 37.0 °F 19.4 °F 39% 30.15 in 10.0 mi SSE 10.4 mph - N/A   Clear
2:15 PM 42.8 °F 36.2 °F 19.4 °F 39% 30.13 in 10.0 mi SSE 12.7 mph 17.3 mph N/A   Clear
2:35 PM 42.8 °F 36.6 °F 19.4 °F 39% 30.11 in 10.0 mi SSE 11.5 mph - N/A   Clear
3:15 PM 42.8 °F 36.2 °F 19.4 °F 39% 30.09 in 10.0 mi SSE 12.7 mph 17.3 mph N/A   Clear
3:55 PM 42.8 °F 35.8 °F 19.4 °F 39% 30.07 in 10.0 mi SSE 13.8 mph - N/A   Clear
4:15 PM 42.8 °F 35.8 °F 19.4 °F 39% 30.05 in 10.0 mi SSE 13.8 mph 18.4 mph N/A   Clear
4:55 PM 39.2 °F 33.0 °F 21.2 °F 49% 30.03 in 10.0 mi SE 9.2 mph - N/A   Clear
5:15 PM 39.2 °F 33.6 °F 21.2 °F 49% 30.02 in 10.0 mi SSE 8.1 mph - N/A   Clear
5:35 PM 37.4 °F 32.8 °F 21.2 °F 52% 30.01 in 10.0 mi SSE 5.8 mph - N/A   Clear
5:55 PM 37.4 °F 32.1 °F 23.0 °F 56% 30.01 in 10.0 mi SSE 6.9 mph - N/A   Clear
6:15 PM 37.4 °F 32.8 °F 23.0 °F 56% 30.01 in 10.0 mi SSE 5.8 mph - N/A   Clear
6:35 PM 37.4 °F 32.8 °F 21.2 °F 52% 30.01 in 10.0 mi South 5.8 mph - N/A   Clear
6:55 PM 37.4 °F 32.8 °F 23.0 °F 56% 30.00 in 10.0 mi South 5.8 mph - N/A   Clear
7:55 PM 35.6 °F 30.7 °F 23.0 °F 60% 29.98 in 10.0 mi South 5.8 mph - N/A   Clear
8:35 PM 35.6 °F 30.7 °F 23.0 °F 60% 29.97 in 10.0 mi South 5.8 mph - N/A   Clear
8:55 PM 35.6 °F 29.2 °F 23.0 °F 60% 29.97 in 10.0 mi South 8.1 mph - N/A   Clear
9:15 PM 37.4 °F 31.4 °F 23.0 °F 56% 29.96 in 10.0 mi South 8.1 mph - N/A   Clear
9:55 PM 39.2 °F 32.5 °F 23.0 °F 52% 29.95 in 10.0 mi South 10.4 mph - N/A   Clear
10:15 PM 41.0 °F 34.7 °F 24.8 °F 53% 29.95 in 10.0 mi South 10.4 mph - N/A   Clear
10:35 PM 41.0 °F 35.2 °F 24.8 °F 53% 29.94 in 10.0 mi South 9.2 mph - N/A   Clear
10:55 PM 41.0 °F 34.7 °F 24.8 °F 53% 29.94 in 10.0 mi South 10.4 mph - N/A   Clear
11:15 PM 41.0 °F 34.3 °F 24.8 °F 53% 29.93 in 10.0 mi South 11.5 mph - N/A   Clear
11:35 PM 41.0 °F 34.7 °F 24.8 °F 53% 29.93 in 10.0 mi South 10.4 mph - N/A   Clear
11:55 PM 39.2 °F 33.0 °F 24.8 °F 56% 29.94 in 10.0 mi South 9.2 mph - N/A   Clear